{"data":{"norad_id":66329,"intl_designator":"2025-253L","name":"STARLINK-35505","alt_names":[],"object_type":"PAYLOAD","status":"ACTIVE","operator":null,"country":"US","launch_date":"2025-11-06","launch_site_code":"AFETR","launch_vehicle":null,"mission":null,"orbit_class":"UNKNOWN","rcs_meters":null,"size_class":null,"mass_kg":null,"dimensions":null,"purposes":["comms"],"wikipedia_slug":null,"has_3d_model":false,"image_url":null,"decayed_at":null,"tle_current":{"epoch":"2026-09-20T05:01:01.766208Z","epoch_age_seconds":121854,"freshness":"FRESH","line1":"1 66329U 25253L   26263.20904822  .00015927  00000+0  58689-3 0  9991","line2":"2 66329  43.0034 193.9707 0001540 264.2945  95.7731 15.27589500 49995","mean_motion":15.275895,"eccentricity":0.000154,"inclination_deg":43.0034,"raan_deg":193.9707,"arg_perigee_deg":264.2945,"mean_anomaly_deg":95.7731,"bstar":0.00058689,"rev_number":4999,"period_min":94.266162473623,"perigee_km":481.9640314914,"apogee_km":484.07726804753,"semimajor_km":6861.1576497695,"source":"CELESTRAK","updated_at":"2026-09-21T09:00:35.874796Z"}}}